Weather History for Fayetteville, AR

Change the Weather History Date:

Tuesday, October 30, 2012

  Actual Average Record
Temperature  
Mean Temperature 46 °F 54 °F  
Max Temperature 64 °F 66 °F 85 °F (1968)
Min Temperature 28 °F 42 °F 17 °F (1998)
Degree Days  
Heating Degree Days 19 12  
Month to date heating degree days 237  
Since 1 July heating degree days 289  
Cooling Degree Days 0 0  
Month to date cooling degree days 18  
Year to date cooling degree days 1301  
Moisture  
Dew Point 34 °F    
Average Humidity 70    
Maximum Humidity 96    
Minimum Humidity 33    
Precipitation  
Precipitation 0.00 in 0.13 in 1.34 in (1999)
Month to date precipitation 4.19  
Year to date precipitation 40.90  
Sea Level Pressure  
Sea Level Pressure 30.04 in    
Wind  
Wind Speed 2 mph (SSW)    
Max Wind Speed 13 mph    
Max Gust Speed -    
Visibility 10 miles    
Events      
T = Trace of Precipitation, MM = Missing Value Source: NWS Daily Summary

Daily Weather History Graph

Daily Weather History Graph

Search for Another Location

Airport:

Trip Planner

Search our weather history database for the weather conditions in past years. The results will help you decide how hot, cold, wet, or windy it might be!

Date:

Astronomy

Oct. 30, 2012 Rise Set
Actual Time 7:37 AM CDT 6:22 PM CDT
Civil Twilight 7:11 AM CDT 6:48 PM CDT
Nautical Twilight 6:41 AM CDT 7:18 PM CDT
Astronomical Twilight 6:11 AM CDT 7:48 PM CDT
Moon 6:55 PM CDT (10/30) 8:22 AM CDT (10/30)
Length of Visible Light 11h 37m
Length of Day
10h 44m
Full, 99% of the Moon is Illuminated
Oct 30
Full
Nov 6
Last Quarter
Nov 13
New
Nov 20
First Quarter
Nov 28
Full

Hourly Weather History & Observations

Time (CDT) Temp. Windchill Dew Point Humidity Pressure Visibility Wind Dir Wind Speed Gust Speed Precip Events Conditions
12:53 AM 33.1 °F - 30.0 °F 89% 30.14 in 10.0 mi Calm Calm - N/A   Clear
1:53 AM 34.0 °F - 30.0 °F 85% 30.12 in 10.0 mi Calm Calm - N/A   Clear
2:53 AM 32.0 °F - 30.0 °F 92% 30.12 in 10.0 mi Calm Calm - N/A   Clear
3:53 AM 30.9 °F - 28.9 °F 92% 30.10 in 10.0 mi Calm Calm - N/A   Clear
4:53 AM 30.9 °F - 28.9 °F 92% 30.10 in 10.0 mi Calm Calm - N/A   Clear
5:53 AM 30.9 °F - 28.9 °F 92% 30.10 in 10.0 mi Calm Calm - N/A   Clear
6:53 AM 28.9 °F - 28.0 °F 96% 30.11 in 10.0 mi Calm Calm - N/A   Clear
7:53 AM 30.0 °F - 28.0 °F 92% 30.11 in 10.0 mi Calm Calm - N/A   Clear
8:53 AM 34.0 °F 31.0 °F 30.9 °F 89% 30.10 in 10.0 mi SE 3.5 mph - N/A   Clear
9:53 AM 43.0 °F - 36.0 °F 76% 30.08 in 10.0 mi Calm Calm - N/A   Mostly Cloudy
10:53 AM 60.1 °F - 35.1 °F 39% 30.06 in 10.0 mi WSW 6.9 mph - N/A   Clear
11:53 AM 61.0 °F - 32.0 °F 34% 30.05 in 10.0 mi West 12.7 mph - N/A   Partly Cloudy
12:53 PM 61.0 °F - 33.1 °F 35% 30.02 in 10.0 mi SW 8.1 mph - N/A   Mostly Cloudy
1:53 PM 64.0 °F - 34.0 °F 33% 29.99 in 10.0 mi SSW 9.2 mph - N/A   Mostly Cloudy
2:53 PM 62.1 °F - 35.1 °F 37% 29.97 in 10.0 mi WSW 4.6 mph - N/A   Overcast
4:53 PM 64.0 °F - 37.0 °F 37% 29.94 in 10.0 mi SSE 5.8 mph - N/A   Overcast
5:53 PM 64.4 °F - 37.4 °F 37% 29.94 in 10.0 mi SE 3.5 mph - N/A   Scattered Clouds
6:53 PM 51.1 °F - 41.0 °F 68% 29.96 in 10.0 mi Calm Calm - N/A   Clear
7:53 PM 48.9 °F - 39.9 °F 71% 29.97 in 10.0 mi Calm Calm - N/A   Partly Cloudy
8:53 PM 46.0 °F - 39.0 °F 76% 29.97 in 10.0 mi Calm Calm - N/A   Clear
9:53 PM 43.0 °F - 37.9 °F 82% 29.97 in 10.0 mi Calm Calm - N/A   Clear
10:53 PM 42.1 °F - 37.9 °F 85% 29.97 in 10.0 mi Calm Calm - N/A   Clear
11:53 PM 39.9 °F - 37.0 °F 89% 29.96 in 10.0 mi Calm Calm - N/A   Clear